Tracking 22458 objects as of 2-Mar-2021
HD Live streaming from Space Station
objects crossing your sky now

DELTA 1 DEB

Track DELTA 1 DEB now!
10-day predictions


NORAD ID: 10221
Int'l Code: 1977-065AY
Perigee: 488.3 km
Apogee: 1,123.2 km
Inclination: 29.0 °
Period: 100.8 minutes
Semi major axis: 7176 km
RCS: 0.0303 m2 (small)
Launch date: July 14, 1977
Source: United States (US)
Launch site: AIR FORCE EASTERN TEST RANGE (AFETR)

Note: This is SATELLITE DEBRIS
aabbcc
Your satellite tracking list
Your tracking list is empty




NASA's NSSDC Master Catalog

Two Line Element Set (TLE):
1 10221U 77065AY  21060.85343359  .00000701  00000-0  73086-4 0  9996
2 10221  29.0351 249.1405 0442357 251.4703 103.7332 14.27937967193119
Source of the keplerian elements: AFSPC